Location: Bonneuil
(46.1010°N, 2.9693°E)
Time: 02:27:50
(UTC+00:00)

Cosmos 2208 Rocket - Pass Details

Date: 09 April 2020
Orbit: 754 x 806 km, 74.0° (Epoch: 29 May)

Event Time Altitude Azimuth Distance (km) Brightness Sun altitude
Rises 21:28:49 0° 336° (NNW) 3,225 8.4 -27.4°
Reaches altitude 10° 21:31:11 10° 334° (NNW) 2,300 7.4 -27.7°
Enters shadow 21:36:05 69° 277° (W) 820 4.1 -28.2°
